Home > Weather > Flensburg > Past weeks

Flag for Germany Weather for the Past 2 Weeks in Flensburg, Schleswig-Holstein, Germany

Now
39 °F

Rain. Overcast.


Feels Like: 34 °F
Forecast: 37 / 43 °F
Wind: 7 mph from North

Location: Soenderborg Lufthavn

Current Time: Feb 10, 2016 at 12:01:16 AM

Latest Report: Feb 9, 2016 at 11:20 PM


Visibility: 5 mi

Pressure: 28.88 "Hg

Humidity: 100%

Dew point: 39 °F

Location of FlensburgLocation

Historic Weather in Flensburg — Graph

°F

Flensburg Temperature Yesterday

Maximum temperature yesterday: 45 °F (at 12:20 AM)
Minimum temperature yesterday: 39 °F (at 6:20 PM)
Average temperature yesterday: 43 °F

High & Low Weather Summary for the Past Weeks

 TemperatureHumidityPressure
High52 °F (Jan 27, 6:21 PM)100% (Jan 25, 10:20 PM)30.09 "Hg (Jan 25, 10:20 PM)
Low36 °F (Jan 30, 11:20 PM)66% (Jan 28, 1:50 PM)28.88 "Hg (Feb 9, 9:51 PM)
Average44 °F86%29.60 "Hg
* Reported Jan 25 10:20 PM — Feb 9 10:20 PM, Flensburg, Weather by CustomWeather, © 2016

Note: Actual official high and low records may vary slightly from our data, if they occured in-between our weather recording intervals... More about our weather records

Advertising

Flensburg Weather History for the Previous 24 Hours

 ConditionsComfort  
Time TempWeatherWind HumidityBarometerVisibility
10:20 PM
Tue, Feb 9
39 °FLight rain. Passing clouds.14 mph93%28.88 "HgN/A
9:51 PM41 °FPassing clouds.8 mph93%28.88 "HgN/A
9:20 PM41 °FPassing clouds.3 mph93%28.91 "HgN/A
8:50 PM41 °FPassing clouds.6 mph93%28.91 "HgN/A
8:20 PM41 °FPassing clouds.3 mph93%28.94 "HgN/A
7:50 PM41 °FPartly cloudy.5 mph87%28.94 "HgN/A
7:24 PM41 °FPartly cloudy.5 mph87%28.97 "HgN/A
6:50 PM41 °FPartly cloudy.6 mph87%28.97 "HgN/A
6:20 PM39 °FPartly cloudy.6 mph93%28.97 "HgN/A
5:50 PM41 °FPartly cloudy.5 mph87%29.00 "HgN/A
5:20 PM43 °FPartly cloudy.5 mph81%29.03 "HgN/A
4:50 PM43 °FBroken clouds.6 mph81%29.03 "HgN/A
4:20 PM45 °FBroken clouds.7 mph76%29.03 "HgN/A
3:20 PM45 °FScattered clouds.10 mph76%29.03 "HgN/A
2:20 PM45 °FBroken clouds.13 mph76%29.06 "HgN/A
1:50 PM45 °FBroken clouds.16 mph76%29.09 "HgN/A
1:20 PM45 °FPartly sunny.15 mph81%29.09 "HgN/A
12:20 PM45 °FScattered showers. Scattered clouds.14 mph81%29.09 "HgN/A
11:20 AM41 °FSprinkles. Broken clouds.16 mph87%29.12 "HgN/A
10:50 AM43 °FScattered showers. Broken clouds.16 mph81%29.12 "HgN/A
10:20 AM43 °FBroken clouds.18 mph81%29.12 "HgN/A
9:50 AM43 °FPartly sunny.17 mph87%29.09 "HgN/A
9:20 AM43 °FBroken clouds.15 mph87%29.09 "HgN/A
8:50 AM43 °FBroken clouds.15 mph87%29.09 "HgN/A
8:20 AM43 °FSprinkles. Broken clouds.16 mph93%29.09 "Hg5 mi
7:50 AM43 °FSprinkles. Partly cloudy.21 mph87%29.09 "Hg5 mi
7:20 AM43 °FSprinkles. Overcast.13 mph93%29.06 "HgN/A
6:50 AM43 °FRain showers. Passing clouds.14 mph93%29.06 "Hg6 mi
6:20 AM43 °FRain. Overcast.13 mph93%29.06 "Hg3 mi
5:50 AM45 °FPartly cloudy.12 mph87%29.03 "HgN/A
5:20 AM45 °FPassing clouds.12 mph87%29.03 "HgN/A
4:50 AM43 °FSprinkles. Partly cloudy.12 mph93%29.03 "HgN/A
4:20 AM43 °FSprinkles. Passing clouds.13 mph93%29.00 "HgN/A
3:50 AM45 °FSprinkles. Partly cloudy.14 mph87%29.00 "HgN/A
3:20 AM43 °FSprinkles. Passing clouds.12 mph93%29.00 "HgN/A
2:20 AM45 °FSprinkles. Partly cloudy.14 mph87%28.97 "HgN/A
1:50 AM45 °FSprinkles. Passing clouds.13 mph87%28.97 "HgN/A
1:20 AM43 °FSprinkles. Passing clouds.12 mph93%28.94 "HgN/A
12:50 AM43 °FSprinkles. Passing clouds.14 mph93%28.94 "HgN/A
12:20 AM45 °FSprinkles. Overcast.15 mph87%28.94 "HgN/A
Weather by CustomWeather, © 2016

See weather overviewHow to use our weather pages